Regional Weather Roundup
Issued by NWS Northern Indiana

Home | Current Version | Previous Version | Graphics & Text | Print | Product List | Glossary On
Versions: 1 2 3 4 5 6 7 8 9 10 11 12 13 14 15 16 17 18 19 20 21 22 23 24 25 26 27 28 29 30 31 32 33 34 35 36 37 38 39 40 41 42 43 44 45 46 47 48 49 50
000
ASUS43 KIWX 071410
RWRIWX

KIWX WEATHER ROUNDUP
NATIONAL WEATHER SERVICE NORTHERN INDIANA
900 AM EST WED DEC 07 2016

NOTE: "FAIR" INDICATES FEW OR NO CLOUDS BELOW 12,000 FEET WITH NO
SIGNIFICANT WEATHER AND/OR OBSTRUCTIONS TO VISIBILITY.

* THESE STATIONS ARE NOT UNDER NWS QUALITY CONTROL. THEY ALSO MAY NOT
  REPORT WEATHER SUCH AS PRECIPITATION OR FOG.

INZ001>027-071500-
NORTHERN INDIANA

CITY           SKY/WX    TMP DP  RH WIND       PRES   REMARKS
GARY*          CLOUDY    28  19  69 W12G23    30.08S WCI  18
VALPARAISO     CLOUDY    28  19  69 W12       30.07R WCI  18
MICHIGAN CITY* MOCLDY    28  19  69 W6        30.06S WCI  22
LAPORTE*       CLOUDY    29  24  84 W9        30.06S WCI  20
KNOX*          CLOUDY    28   5  37 W9        30.07S WCI  20
SOUTH BEND     CLOUDY    26  19  74 W9        30.05F WCI  17
GOSHEN         CLOUDY    28  19  69 W10       30.04F WCI  19
MONTICELLO*    PTCLDY    28  18  65 SW9       30.10R WCI  20
LOGANSPORT*    PTCLDY    28  21  74 SW10      30.11R WCI  19
ROCHESTER*     CLOUDY    32  25  74 W6        30.07S WCI  26
WARSAW*        CLOUDY    28  19  69 W7        30.05F WCI  21
ANGOLA*        CLEAR     27  21  80 W8        30.02F WCI  18
FORT WAYNE     CLOUDY    28  20  71 SW8       30.08S WCI  20
HUNTINGTON*    PTCLDY    28  20  73 SW6       30.07F WCI  21
PERU/GRISSOM   CLOUDY    28  21  77 SW12      30.08S WCI  18
MARION*        CLEAR     28  23  82 SW8       30.11S WCI  20

$$
INZ028>050-071500-
CENTRAL INDIANA

CITY           SKY/WX    TMP DP  RH WIND       PRES   REMARKS
LAFAYETTE      PTCLDY    28  20  71 SW7       30.13R WCI  21
KOKOMO*        PTCLDY    28  22  78 SW12      30.12R WCI  18
MUNCIE*        CLEAR     28  22  78 SW7       30.11S WCI  21
INDIANAPOLIS   PTCLDY    27  23  85 SW8       30.15R WCI  19

$$
MIZ043>046-050>051-056>058-064>065-071>073-077>080-071500-
SOUTHWEST LOWER MICHIGAN

CITY           SKY/WX    TMP DP  RH WIND       PRES   REMARKS
BATTLE CREEK   MOCLDY    30  24  78 SW10      30.01R WCI  21
BENTON HARBOR  MOCLDY    33  22  63 W21       30.05R WCI  21
COLDWATER*     CLOUDY    28  22  78 SW9       30.02F WCI  19
HILLSDALE*     CLOUDY    27  21  80 SW8       30.00F WCI  18
HOLLAND        CLOUDY    32  25  75 W20G26    30.00R WCI  20
GRAND RAPIDS   CLOUDY    31  23  72 W15G22    29.98R WCI  20
KALAMAZOO      CLOUDY    31  22  69 SW13      30.02R WCI  21
STURGIS*       CLOUDY    28  20  75 W8        30.02F WCI  19
THREE RIVERS*  FAIR      28  21  75 W6        30.04S WCI  22

$$
OHZ001>008-015>018-024>025-071500-
NORTHWEST OHIO

CITY           SKY/WX    TMP DP  RH WIND       PRES   REMARKS
WAUSEON*       FAIR      28  23  80 SW12      30.06R WCI  18
DEFIANCE       CLEAR     29  20  69 SW6       30.08S WCI  23
FINDLAY        SUNNY     29  21  72 W9        30.09R WCI  20
TOLEDO EXPRESS CLEAR     27  22  81 SW12      30.07R WCI  17
TOLEDO METCALF SUNNY     28  24  85 SW10      30.09R WCI  19
LIMA           SUNNY     27  21  78 SW10      30.09R WCI  17

$$
AND FOR LAKE MICHIGAN COASTAL AND OPEN LAKE BUOY OBSERVATIONS

STATION/POSITION TEMP    WIND        PRES    VSBY  WAVE
                 AIR SEA DIR/SP/G                  HT/PER
                 (F)     (DEG/KT/KT) (MB)    (MI)  (FT/S)
CALUMET HARBOR    26     240/  6/ 13 1017.8R
MICHIGAN CITY     30     220/ 18/ 23   N/A
BURNS HARBOR      29     250/ 14/ 17 1018.6S
SAINT JOSEPH      35     260/ 19/ 25 1018.3

$$
&&




USA.gov is the U.S. government's official web portal to all federal, state and local government web resources and services.